Cumberland, WV

12:56 AM EDT on April 28, 2017 (GMT -0400)
Greater Cumberland Regional

Weather History for KCBE - May, 2013

Change the Weather History Date:

Saturday, May 4, 2013

  Actual Average (KMRB) Record (KMRB)
Temperature  
Mean Temperature 55 °F -  
Max Temperature 69 °F 67 °F 91 °F (1938)
Min Temperature 41 °F 45 °F 31 °F (1957)
Degree Days  
Heating Degree Days 10    
Growing Degree Days 5 (Base 50)    
Moisture  
Dew Point 38 °F    
Average Humidity 56    
Maximum Humidity 93    
Minimum Humidity 30    
Precipitation  
Precipitation 0.00 in - - ()
Sea Level Pressure  
Sea Level Pressure 30.27 in    
Wind  
Wind Speed 4 mph (SE)    
Max Wind Speed 14 mph    
Max Gust Speed 23 mph    
Visibility 10 miles    
Events      
Averages and records for this station are not official NWS values.
T = Trace of Precipitation, MM = Missing Value Source: NWS Daily Summary

Daily Weather History Graph

Daily Weather History Graph

Search for Another Location

Airport or City:

Trip Planner

Search our weather history database for the weather conditions in past years. The results will help you decide how hot, cold, wet, or windy it might be!

Date:

Astronomy

May. 04, 2013 Rise Set
Actual Time 6:11 AM EDT 8:12 PM EDT
Civil Twilight 5:42 AM EDT 8:41 PM EDT
Nautical Twilight 5:06 AM EDT 9:17 PM EDT
Astronomical Twilight 4:27 AM EDT 9:56 PM EDT
Moon 3:08 AM EDT (5/4) 3:09 PM EDT (5/4)
Length of Visible Light 14h 59m
Length of Day
14h 00m
Waning Crescent, 27% of the Moon is Illuminated
May 4
Waning Crescent
May 9
New
May 18
First Quarter
May 25
Full
May 31
Last Quarter

Hourly Weather History & Observations

Time (EDT) Temp. Windchill Dew Point Humidity Pressure Visibility Wind Dir Wind Speed Gust Speed Precip Events Conditions
12:09 AM 51.8 °F - 35.6 °F 54% 30.35 in 10.0 mi SE 5.8 mph - N/A   Clear
12:29 AM 51.8 °F - 35.6 °F 54% 30.35 in 10.0 mi SE 5.8 mph - N/A   Clear
12:49 AM 50.0 °F - 35.6 °F 58% 30.35 in 10.0 mi SE 4.6 mph - N/A   Clear
1:09 AM 50.0 °F - 35.6 °F 58% 30.35 in 10.0 mi ESE 3.5 mph - N/A   Clear
1:29 AM 48.2 °F - 35.6 °F 62% 30.34 in 10.0 mi Calm Calm - N/A   Clear
1:49 AM 46.4 °F - 35.6 °F 66% 30.33 in 10.0 mi Calm Calm - N/A   Clear
2:09 AM 46.4 °F - 35.6 °F 66% 30.33 in 10.0 mi Calm Calm - N/A   Clear
2:30 AM 44.6 °F - 35.6 °F 71% 30.32 in 10.0 mi Calm Calm - N/A   Clear
2:50 AM 44.6 °F - 35.6 °F 71% 30.31 in 10.0 mi Calm Calm - N/A   Clear
3:10 AM 44.6 °F - 37.4 °F 76% 30.31 in 10.0 mi Calm Calm - N/A   Clear
3:30 AM 42.8 °F - 37.4 °F 81% 30.30 in 10.0 mi Calm Calm - N/A   Clear
3:50 AM 42.8 °F - 37.4 °F 81% 30.30 in 10.0 mi Calm Calm - N/A   Clear
4:10 AM 41.0 °F - 37.4 °F 87% 30.30 in 10.0 mi Calm Calm - N/A   Clear
4:30 AM 41.0 °F - 37.4 °F 87% 30.30 in 10.0 mi Calm Calm - N/A   Clear
4:50 AM 42.8 °F - 37.4 °F 81% 30.30 in 10.0 mi Calm Calm - N/A   Clear
5:10 AM 41.0 °F - 35.6 °F 81% 30.30 in 10.0 mi Calm Calm - N/A   Scattered Clouds
5:30 AM 41.0 °F - 37.4 °F 87% 30.31 in 10.0 mi Calm Calm - N/A   Mostly Cloudy
5:50 AM 42.8 °F - 39.2 °F 87% 30.31 in 10.0 mi Calm Calm - N/A   Mostly Cloudy
6:10 AM 42.8 °F - 39.2 °F 87% 30.32 in 10.0 mi Calm Calm - N/A   Overcast
6:30 AM 42.8 °F - 39.2 °F 87% 30.32 in 10.0 mi Calm Calm - N/A   Overcast
6:50 AM 42.8 °F 41.1 °F 39.2 °F 87% 30.33 in 10.0 mi SE 3.5 mph - N/A   Mostly Cloudy
7:10 AM 42.8 °F - 39.2 °F 87% 30.33 in 10.0 mi Calm Calm - N/A   Mostly Cloudy
7:30 AM 42.8 °F - 41.0 °F 93% 30.33 in 10.0 mi Calm Calm - N/A   Overcast
7:50 AM 44.6 °F - 41.0 °F 87% 30.33 in 10.0 mi Calm Calm - N/A   Overcast
8:10 AM 44.6 °F - 41.0 °F 87% 30.33 in 10.0 mi Calm Calm - N/A   Overcast
8:30 AM 46.4 °F - 41.0 °F 81% 30.33 in 10.0 mi Calm Calm - N/A   Overcast
8:50 AM 46.4 °F - 41.0 °F 81% 30.34 in 10.0 mi Calm Calm - N/A   Overcast
9:10 AM 48.2 °F - 41.0 °F 76% 30.33 in 10.0 mi Calm Calm - N/A   Overcast
9:30 AM 50.0 °F - 41.0 °F 71% 30.33 in 10.0 mi SSW 4.6 mph - N/A   Mostly Cloudy
9:50 AM 51.8 °F - 41.0 °F 67% 30.32 in 10.0 mi SW 4.6 mph - N/A   Mostly Cloudy
10:10 AM 51.8 °F - 41.0 °F 67% 30.32 in 10.0 mi SE 3.5 mph - N/A   Mostly Cloudy
10:30 AM 53.6 °F - 42.8 °F 67% 30.32 in 10.0 mi SW 4.6 mph - N/A   Scattered Clouds
10:50 AM 55.4 °F - 42.8 °F 63% 30.31 in 10.0 mi Calm Calm - N/A   Clear
11:11 AM 53.6 °F - 41.0 °F 62% 30.31 in 10.0 mi Calm Calm - N/A   Clear
11:31 AM 53.6 °F - 41.0 °F 62% 30.30 in 10.0 mi Calm Calm - N/A   Clear
11:51 AM 55.4 °F - 41.0 °F 58% 30.29 in 10.0 mi North 3.5 mph - N/A   Clear
12:11 PM 59.0 °F - 41.0 °F 51% 30.28 in 10.0 mi ENE 4.6 mph - N/A   Clear
12:31 PM 60.8 °F - 39.2 °F 45% 30.27 in 10.0 mi Calm Calm - N/A   Clear
12:51 PM 64.4 °F - 37.4 °F 37% 30.26 in 10.0 mi ESE 4.6 mph - N/A   Clear
1:11 PM 64.4 °F - 33.8 °F 32% 30.26 in 10.0 mi ESE 11.5 mph 17.3 mph N/A   Clear
1:31 PM 64.4 °F - 33.8 °F 32% 30.26 in 10.0 mi East 10.4 mph - N/A   Clear
1:51 PM 66.2 °F - 35.6 °F 32% 30.25 in 10.0 mi East 5.8 mph - N/A   Clear
2:11 PM 68.0 °F - 35.6 °F 30% 30.24 in 10.0 mi East 12.7 mph 23.0 mph N/A   Clear
2:31 PM 68.0 °F - 35.6 °F 30% 30.23 in 10.0 mi SE 11.5 mph 19.6 mph N/A   Clear
2:51 PM 68.0 °F - 35.6 °F 30% 30.22 in 10.0 mi SSE 11.5 mph 21.9 mph N/A   Clear
3:11 PM 68.0 °F - 37.4 °F 33% 30.22 in 10.0 mi SE 11.5 mph 20.7 mph N/A   Clear
3:31 PM 69.8 °F - 37.4 °F 31% 30.22 in 10.0 mi ESE 8.1 mph - N/A   Clear
3:51 PM 68.0 °F - 35.6 °F 30% 30.20 in 10.0 mi SE 9.2 mph 19.6 mph N/A   Clear
4:11 PM 68.0 °F - 35.6 °F 30% 30.20 in 10.0 mi ESE 13.8 mph - N/A   Clear
4:31 PM 68.0 °F - 37.4 °F 33% 30.20 in 10.0 mi East 8.1 mph - N/A   Clear
4:51 PM 68.0 °F - 37.4 °F 33% 30.19 in 10.0 mi East 6.9 mph 19.6 mph N/A   Clear
5:11 PM 68.0 °F - 35.6 °F 30% 30.19 in 10.0 mi East 10.4 mph - N/A   Clear
5:31 PM 68.0 °F - 37.4 °F 33% 30.18 in 10.0 mi East 11.5 mph - N/A   Clear
5:51 PM 68.0 °F - 35.6 °F 30% 30.18 in 10.0 mi SSE 11.5 mph 16.1 mph N/A   Clear
6:11 PM 68.0 °F - 35.6 °F 30% 30.18 in 10.0 mi ESE 8.1 mph - N/A   Clear
6:31 PM 68.0 °F - 35.6 °F 30% 30.18 in 10.0 mi East 8.1 mph - N/A   Clear
6:51 PM 66.2 °F - 35.6 °F 32% 30.18 in 10.0 mi SE 4.6 mph - N/A   Clear
7:11 PM 64.4 °F - 35.6 °F 34% 30.18 in 10.0 mi SE 8.1 mph - N/A   Clear
7:31 PM 64.4 °F - 35.6 °F 34% 30.18 in 10.0 mi SE 8.1 mph - N/A   Clear
7:52 PM 62.6 °F - 35.6 °F 37% 30.19 in 10.0 mi ESE 6.9 mph - N/A   Clear
8:12 PM 62.6 °F - 35.6 °F 37% 30.19 in 10.0 mi ESE 9.2 mph - N/A   Clear
8:32 PM 60.8 °F - 35.6 °F 39% 30.20 in 10.0 mi SE 8.1 mph - N/A   Clear
8:52 PM 60.8 °F - 35.6 °F 39% 30.22 in 10.0 mi SE 6.9 mph - N/A   Clear
9:12 PM 60.8 °F - 35.6 °F 39% 30.22 in 10.0 mi SSE 4.6 mph - N/A   Clear
9:32 PM 59.0 °F - 35.6 °F 42% 30.23 in 10.0 mi SE 4.6 mph - N/A   Clear
9:52 PM 59.0 °F - 37.4 °F 45% 30.24 in 10.0 mi SSE 3.5 mph - N/A   Clear
10:12 PM 57.2 °F - 37.4 °F 48% 30.24 in 10.0 mi Calm Calm - N/A   Clear
10:32 PM 55.4 °F - 37.4 °F 51% 30.25 in 10.0 mi Calm Calm - N/A   Clear
10:52 PM 55.4 °F - 37.4 °F 51% 30.24 in 10.0 mi Calm Calm - N/A   Clear
11:12 PM 55.4 °F - 37.4 °F 51% 30.24 in 10.0 mi Calm Calm - N/A   Clear
11:32 PM 53.6 °F - 37.4 °F 54% 30.24 in 10.0 mi South 3.5 mph - N/A   Clear
11:52 PM 53.6 °F - 37.4 °F 54% 30.24 in 10.0 mi Calm Calm - N/A   Clear